Probability
0 0 0 0 0 0 0 0 0 0 0 0 0 0 0 0 0 0 0 0 0 0 6 10 16 16 13 13 13 3 3 3 0 0 0 0 0 0
0 0 0 0 0 0 0 0 0 0 0 0 0 0 0 0 0 0 0 0 0 0 0 3 6 6 10 3 3 0 0 0 0 0 0 0 0 0
0 0 0 0 0 0 0 0 0 0 0 0 0 0 0 0 0 0 0 0 0 0 0 0 0 0 3 3 0 0 0 0 0 0 0 0 0 0
0 0 0 0 0 0 0 0 0 0 0 0 0 0 0 0 0 0 0 0 0 0 0 0 0 0 0 0 0 0 0 0 0 0 0 0 0 0
0 0 0 0 0 0 0 0 0 0 0 0 0 0 0 0 0 0 0 0 0 0 0 0 0 0 0 0 0 0 0 0 0 0 0 0 0 0
0 0 0 0 0 0 0 0 0 0 0 0 0 0 0 0 0 0 0 0 0 0 0 0 0 0 0 0 0 0 0 0 0 0 0 0 0 0
0 0 0 0 0 0 0 0 0 0 0 0 0 0 0 0 0 0 0 0 0 0 0 0 0 0 0 0 0 0 0 0 0 0 0 0 0 0
0 0 0 0 0 0 0 0 0 0 0 0 0 0 0 0 0 0 0 0 0 0 0 0 0 0 0 0 0 0 0 0 0 0 0 0 0 0
0 0 0 0 0 0 0 0 0 0 0 0 0 0 0 0 0 0 0 0 0 0 0 0 0 0 0 0 0 0 0 0 0 0 0 0 0 0
0 0 0 0 0 0 0 0 0 0 0 0 0 0 0 0 0 0 0 0 0 0 0 0 0 0 0 0 0 0 0 0 0 0 0 0 0 0
0 0 0 0 0 0 0 0 0 0 0 0 0 0 0 0 0 0 0 0 0 0 0 0 0 0 0 0 0 0 0 0 0 0 0 0 0 0
0 0 0 0 0 0 0 0 0 0 0 0 0 0 0 0 0 0 0 0 0 0 0 0 0 0 0 0 0 0 0 0 0 0 0 0 0 0
0 0 0 0 0 0 0 0 0 0 0 0 0 0 0 0 0 0 0 0 0 0 0 0 0 0 0 0 0 0 0 0 0 0 0 0 0 0
0 0 0 0 0 0 0 0 0 0 0 0 0 0 0 0 0 0 0 0 0 0 0 0 0 0 0 0 0 0 0 0 0 0 0 0 0 0
0 0 0 0 0 0 0 0 0 0 0 0 0 0 0 0 0 0 0 0 0 0 0 0 0 0 0 0 0 0 0 0 0 0 0 0 0 0
0 0 0 0 0 0 0 0 0 0 0 0 0 0 0 0 0 0 0 0 0 0 0 0 0 0 0 0 0 0 0 0 0 0 0 0 0 0
0 0 0 0 0 0 0 0 0 0 0 0 0 0 0 0 0 0 0 0 0 0 0 0 0 0 0 0 0 0 0 0 0 0 0 0 0 0
0 0 0 0 0 0 0 0 0 0 0 0 0 0 0 0 0 0 0 0 0 0 0 0 0 0 0 0 0 0 0 0 0 0 0 0 0 0
0 0 0 0 0 0 0 0 0 0 0 0 0 0 0 0 0 0 0 0 0 0 0 0 0 0 0 0 0 0 0 0 0 0 0 0 0 0
0 0 0 0 0 0 0 0 0 0 0 0 0 0 0 0 0 0 0 0 0 0 0 0 0 0 0 0 0 0 0 0 0 0 0 0 0 0
0 0 0 0 0 0 0 0 0 0 0 0 0 0 0 0 0 0 0 0 0 0 0 0 0 0 0 0 0 0 0 0 0 0 0 0 0 0
0 0 0 0 0 0 0 0 0 0 0 0 0 0 0 0 0 0 0 0 0 0 0 0 0 0 0 0 0 0 0 0 0 0 0 0 0 0
0 0 0 0 0 0 0 0 0 0 0 0 0 0 0 0 0 0 0 0 0 0 0 0 0 0 0 0 0 0 0 0 0 0 0 0 0 0
Height
5817 5818 5819 5820 5822 5823 5825 5827 5829 5830 5831 5832 5832 5831 5832 5831 5831 5830 5829 5829 5828 5828 5828 5828 5828 5829 5830 5831 5832 5833 5834 5835 5836 5837 5837 5838 5839 5840
5808 5809 5810 5811 5813 5814 5816 5818 5820 5822 5823 5824 5825 5825 5825 5824 5824 5824 5824 5824 5823 5823 5823 5823 5823 5823 5824 5825 5826 5827 5828 5829 5830 5830 5831 5831 5832 5832
5800 5800 5801 5803 5804 5806 5808 5810 5813 5815 5816 5817 5818 5818 5818 5818 5818 5818 5818 5818 5817 5817 5817 5817 5818 5818 5819 5819 5820 5821 5822 5823 5824 5824 5824 5824 5825 5825
5792 5793 5794 5795 5797 5799 5802 5804 5807 5808 5809 5810 5811 5812 5812 5813 5813 5813 5813 5812 5812 5812 5812 5812 5812 5813 5813 5814 5815 5815 5816 5817 5817 5817 5817 5817 5817 5817
5786 5787 5788 5790 5792 5794 5796 5798 5800 5802 5803 5804 5805 5806 5807 5807 5807 5807 5807 5807 5807 5806 5806 5806 5807 5807 5807 5808 5809 5810 5810 5810 5811 5811 5810 5810 5810 5810
5781 5783 5784 5785 5787 5789 5791 5793 5794 5795 5797 5798 5799 5800 5801 5802 5802 5802 5802 5802 5802 5801 5801 5800 5801 5801 5802 5803 5803 5804 5804 5804 5804 5804 5804 5804 5803 5803
5778 5778 5780 5781 5783 5784 5786 5787 5788 5790 5791 5792 5793 5795 5795 5796 5796 5796 5797 5797 5797 5796 5796 5795 5796 5796 5796 5797 5797 5798 5798 5798 5798 5798 5798 5797 5797 5796
5773 5774 5775 5776 5777 5779 5780 5781 5783 5784 5786 5787 5788 5789 5790 5790 5791 5791 5792 5792 5792 5792 5791 5791 5791 5791 5791 5791 5791 5791 5791 5791 5791 5791 5791 5790 5789 5789
5768 5768 5769 5770 5772 5773 5775 5776 5777 5779 5780 5782 5783 5783 5784 5785 5786 5786 5787 5787 5787 5787 5787 5786 5786 5786 5785 5785 5785 5785 5785 5784 5784 5784 5783 5782 5781 5780
5761 5762 5763 5764 5766 5767 5769 5771 5772 5774 5775 5776 5777 5778 5779 5780 5781 5782 5782 5783 5783 5783 5783 5782 5782 5781 5781 5780 5780 5779 5779 5778 5777 5776 5775 5773 5772 5771
5754 5755 5757 5758 5759 5761 5763 5765 5767 5769 5770 5771 5773 5773 5774 5775 5776 5777 5777 5778 5778 5778 5778 5778 5777 5777 5777 5776 5775 5774 5772 5771 5769 5768 5766 5765 5763 5761
5746 5748 5750 5752 5754 5756 5758 5760 5762 5764 5765 5767 5768 5769 5770 5771 5772 5772 5773 5773 5774 5774 5774 5774 5773 5773 5772 5771 5769 5768 5766 5764 5762 5759 5757 5755 5753 5750
5740 5741 5743 5746 5748 5750 5752 5755 5757 5759 5761 5763 5765 5766 5767 5767 5768 5769 5769 5770 5770 5770 5770 5770 5769 5768 5767 5765 5763 5761 5759 5756 5754 5751 5748 5745 5742 5740
5734 5736 5738 5740 5743 5745 5748 5750 5753 5755 5758 5760 5761 5763 5764 5765 5765 5766 5766 5767 5767 5767 5767 5766 5765 5764 5762 5760 5758 5755 5752 5749 5746 5742 5739 5735 5731 5728
5729 5731 5733 5735 5738 5741 5743 5746 5749 5752 5754 5757 5759 5760 5762 5763 5763 5764 5765 5765 5765 5764 5764 5763 5762 5760 5758 5756 5753 5749 5746 5742 5738 5734 5729 5724 5720 5716
5726 5726 5728 5731 5734 5737 5740 5743 5746 5750 5752 5755 5757 5759 5760 5761 5762 5763 5763 5763 5763 5763 5762 5761 5759 5757 5754 5751 5748 5744 5740 5735 5730 5725 5720 5714 5709 5705
5724 5725 5726 5729 5732 5735 5738 5742 5745 5748 5751 5754 5756 5758 5759 5761 5761 5762 5762 5762 5762 5761 5760 5759 5756 5754 5751 5748 5744 5739 5734 5729 5723 5717 5711 5706 5700 5695
5727 5727 5728 5730 5733 5736 5738 5742 5745 5748 5751 5754 5756 5758 5759 5760 5761 5761 5762 5761 5761 5760 5758 5757 5755 5752 5749 5745 5741 5735 5730 5724 5717 5711 5705 5699 5693 5688
5733 5733 5733 5735 5737 5739 5741 5744 5747 5750 5752 5755 5757 5758 5760 5761 5761 5762 5762 5761 5761 5759 5758 5756 5753 5750 5747 5743 5738 5732 5727 5720 5714 5707 5701 5695 5688 5682
5742 5741 5741 5742 5743 5744 5746 5748 5750 5753 5755 5757 5758 5760 5761 5762 5762 5762 5762 5762 5761 5759 5758 5755 5753 5749 5746 5742 5737 5731 5725 5719 5712 5706 5699 5692 5686 5679
5752 5751 5750 5750 5750 5751 5753 5754 5755 5757 5758 5760 5761 5762 5763 5763 5763 5763 5763 5762 5761 5759 5758 5755 5752 5749 5746 5741 5737 5731 5725 5719 5713 5706 5699 5692 5685 5678
5760 5759 5758 5758 5758 5758 5759 5760 5761 5761 5762 5763 5764 5764 5765 5765 5765 5764 5764 5763 5761 5760 5758 5755 5752 5749 5745 5741 5736 5731 5726 5720 5714 5707 5700 5694 5687 5679
5768 5767 5766 5765 5765 5765 5765 5765 5766 5766 5766 5766 5767 5767 5767 5767 5766 5765 5764 5763 5761 5760 5757 5755 5752 5749 5745 5741 5736 5732 5726 5721 5715 5709 5703 5696 5689 5683
Wind_Speed
31 32 34 35 35 36 35 33 30 28 26 26 25 24 22 22 21 21 22 21 22 22 23 23 25 26 27 28 29 30 30 29 29 29 29 29 29 29
32 33 34 33 33 34 33 31 28 27 26 25 23 23 21 21 20 20 21 21 21 21 21 22 23 25 26 27 28 29 29 30 30 29 29 29 29 29
32 33 32 31 31 30 28 26 25 24 24 23 21 21 20 20 19 19 20 21 21 21 22 23 23 24 25 26 27 29 29 30 30 30 30 30 30 30
27 27 26 25 24 24 23 22 22 22 22 21 19 19 19 19 19 19 20 20 21 21 22 23 24 24 24 25 26 27 28 29 29 29 30 30 31 31
18 18 18 19 19 19 19 20 20 20 19 19 18 18 19 19 19 20 20 20 20 21 23 24 25 25 25 24 24 25 25 25 26 26 26 27 28 29
15 15 16 17 17 18 18 19 19 18 18 18 18 19 19 19 19 20 20 20 20 21 22 23 24 25 24 24 24 24 24 24 23 24 25 25 26 27
16 17 17 17 18 18 18 18 18 18 18 19 19 19 19 19 19 19 20 19 19 19 19 21 22 24 25 25 25 26 26 25 25 25 26 26 27 28
18 18 18 18 18 18 19 18 18 18 19 19 19 19 19 19 19 19 19 18 18 18 18 18 19 22 24 25 25 26 27 28 28 28 29 29 30 31
21 21 20 20 20 20 19 19 18 18 18 18 18 18 18 19 19 19 18 18 18 17 17 17 17 19 21 23 25 27 28 29 30 31 31 32 33 34
22 22 22 21 21 20 20 19 18 18 18 17 17 17 17 18 19 19 18 18 18 18 17 17 17 17 18 20 21 24 26 28 30 31 32 34 35 36
23 22 22 22 21 20 19 19 18 17 17 16 15 15 16 17 17 17 17 17 17 17 16 16 17 18 19 21 23 24 26 27 29 31 33 34 35 37
20 21 21 21 20 19 19 18 17 16 16 15 14 14 14 14 15 15 15 15 15 16 16 16 17 18 19 21 22 24 26 28 29 31 33 34 36 37
18 18 18 18 18 18 18 18 17 15 14 14 13 11 11 11 12 12 12 13 13 14 14 15 16 18 19 21 22 23 25 27 29 31 33 34 36 38
15 15 16 16 17 17 17 16 16 15 13 12 11 10 9 8 8 8 9 9 10 11 12 13 14 16 17 19 21 23 25 27 29 31 33 35 37 38
11 13 14 15 15 15 15 15 14 13 12 11 10 9 7 6 5 5 5 6 7 9 10 11 12 14 16 18 20 22 24 26 28 30 32 35 36 38
5 7 9 11 12 13 13 13 13 12 11 10 9 7 6 5 4 3 4 5 6 7 8 9 11 13 14 16 19 21 24 26 28 30 31 32 33 34
3 3 5 8 9 10 11 11 12 11 10 9 7 7 5 4 3 2 2 3 5 6 7 9 11 13 15 18 20 22 25 27 28 29 29 29 29 30
12 10 9 9 9 10 11 11 11 11 10 9 7 7 5 3 2 1 1 3 4 6 8 11 13 15 17 19 22 24 26 27 28 28 28 28 28 28
20 18 16 14 13 12 12 12 13 12 11 9 8 7 5 4 4 3 3 4 6 8 10 12 14 16 18 21 23 26 27 29 29 29 29 29 28 27
24 22 20 18 17 16 15 14 13 12 11 10 9 8 7 6 5 5 5 6 8 9 11 13 15 17 20 22 24 26 28 29 30 30 30 29 29 28
25 24 23 21 20 18 17 16 15 14 13 12 10 9 8 8 7 7 7 7 9 10 12 13 15 17 19 21 23 25 27 28 29 30 31 31 31 31
24 23 22 22 21 20 19 18 16 15 14 13 12 10 9 8 8 8 8 8 9 11 12 14 15 17 19 21 23 24 26 27 29 29 30 31 32 32
22 21 21 20 20 19 18 17 16 15 14 13 12 11 10 9 8 8 8 9 10 11 12 14 16 17 19 20 22 23 25 26 27 28 29 30 31 31
Wind_Direction
256 256 257 256 255 252 250 250 252 256 261 263 267 270 270 270 270 271 272 272 273 270 267 262 257 253 251 249 248 249 250 250 251 252 253 254 255 255
256 257 258 256 254 252 251 251 252 256 259 261 263 265 266 267 268 269 269 270 270 268 267 263 258 254 253 251 249 249 251 252 253 255 255 256 256 257
257 256 254 252 251 250 248 248 251 255 257 258 259 260 262 264 266 268 270 270 267 266 266 262 259 256 254 252 251 251 252 253 255 257 258 258 257 257
252 250 248 247 246 245 245 248 251 253 255 255 256 257 258 261 264 267 268 269 268 265 266 263 261 257 255 255 255 255 255 257 258 259 260 260 259 259
248 248 246 244 245 247 249 251 252 253 254 255 254 255 256 259 261 264 267 267 268 266 266 265 262 257 254 255 256 259 260 260 261 262 262 262 261 260
249 250 250 249 249 250 251 253 255 256 256 256 256 255 255 257 259 262 265 266 269 270 268 264 261 255 253 254 256 257 260 262 263 264 265 265 264 263
254 253 252 252 252 252 254 256 258 258 258 258 258 257 257 258 260 262 265 267 268 270 269 267 265 257 254 256 257 256 258 260 263 266 266 267 268 267
261 259 258 257 256 256 257 257 258 258 258 258 259 258 258 259 260 261 263 265 268 271 272 272 270 264 259 258 257 257 259 259 262 265 267 268 269 269
263 262 262 260 259 258 258 257 257 258 259 260 259 259 258 258 259 259 261 262 265 269 271 273 274 271 269 265 264 264 264 264 266 268 269 268 269 270
262 261 260 258 258 257 257 257 257 258 259 260 259 259 258 259 259 260 260 261 263 266 268 270 272 273 273 272 273 272 272 270 270 270 271 271 272 273
260 257 255 254 254 254 254 254 254 256 258 259 260 258 258 258 259 260 259 260 263 267 270 272 272 274 277 277 277 276 277 276 275 275 275 275 275 275
259 255 253 251 250 249 248 248 248 250 252 253 254 254 256 258 259 260 261 261 263 267 269 273 276 278 280 281 281 281 280 280 279 279 279 279 279 277
257 253 250 247 245 243 243 243 242 243 243 244 245 249 253 255 256 259 261 264 268 272 274 278 281 283 286 288 288 288 287 286 286 285 284 282 281 279
254 250 246 241 240 241 240 239 238 237 236 235 236 240 245 248 252 257 263 268 273 278 283 287 291 293 295 297 297 297 297 295 294 292 289 287 285 283
253 246 240 236 235 234 231 229 227 228 227 225 227 228 232 240 243 250 262 273 282 288 294 300 304 307 310 311 310 309 307 305 303 300 297 294 291 288
260 239 228 223 222 220 216 214 213 212 211 210 210 213 215 217 224 244 270 288 297 306 314 320 325 327 327 327 326 324 321 318 315 312 308 304 300 295
74 144 177 186 191 193 191 191 192 191 190 189 189 188 189 193 209 251 290 317 330 339 345 347 347 346 343 340 338 336 334 331 329 325 321 317 312 307
75 92 112 131 143 151 158 165 170 171 171 169 169 170 169 166 158 118 25 8 6 7 7 5 3 359 355 353 351 349 347 346 342 339 335 331 325 319
73 83 93 105 115 123 130 137 144 148 151 151 150 147 140 128 111 94 68 43 30 22 15 10 8 6 4 2 360 358 357 355 354 351 348 345 340 335
72 78 85 92 99 106 113 119 123 126 128 129 128 123 117 109 98 84 64 44 30 20 13 10 10 9 8 6 5 4 3 2 2 1 360 358 356 353
69 74 80 85 91 95 99 103 106 109 111 112 109 105 100 93 83 70 54 39 28 21 15 12 10 10 8 8 8 7 7 8 8 9 9 9 8 6
68 72 77 81 84 88 91 93 96 97 98 97 96 93 87 79 69 58 46 35 25 18 13 10 9 9 8 8 9 9 9 10 11 11 12 13 14 13
67 71 74 77 80 83 85 86 87 87 87 87 85 81 76 68 58 48 38 29 22 18 15 12 10 9 8 7 7 8 8 9 10 11 12 13 14 14